Location: Munich
(48.1349°N, 11.5617°E)
Time: 09:23:44
(UTC+01:00)

ISS - Visible Passes

Search period start: 19 December 2018 00:00
Search period end: 29 December 2018 00:00
Orbit: 401 x 408 km, 51.6° (Epoch: 20 December)

Date Brightness Start Highest point End Pass type
(mag) Time Alt. Az. Time Alt. Az. Time Alt. Az.
22 Dec -0.5 07:05:06 10° S 07:06:53 14° SE 07:08:41 10° ESE visible
24 Dec -1.5 06:55:46 10° SSW 06:58:36 27° SE 07:01:27 10° E visible
25 Dec -0.9 06:04:21 10° S 06:06:33 17° SE 06:08:44 10° E visible
26 Dec -3.0 06:47:11 10° SW 06:50:24 52° SSE 06:53:37 10° ENE visible
27 Dec -2.2 05:56:40 21° SSW 05:58:13 32° SE 06:01:12 10° E visible
28 Dec -0.9 05:07:08 17° ESE 05:07:08 17° ESE 05:08:34 10° E visible
28 Dec -3.9 06:39:49 17° WSW 06:42:15 87° NNW 06:45:33 10° ENE visible
